CST,Max TemperatureF,Mean TemperatureF,Min TemperatureF,Max Dew PointF,MeanDew PointF,Min DewpointF,Max Humidity, Mean Humidity, Min Humidity, Max Sea Level PressureIn, Mean Sea Level PressureIn, Min Sea Level PressureIn, Max VisibilityMiles, Mean VisibilityMiles, Min VisibilityMiles, Max Wind SpeedMPH, Mean Wind SpeedMPH, Max Gust SpeedMPH,PrecipitationIn, CloudCover, Events, WindDirDegrees
2014-1-1,0,-4,-9,-9,-12,-17,77,69,60,30.45,30.40,30.35,10,10,10,9,6,,0.00,8,,34
2014-1-2,-2,-9,-16,-11,-15,-20,84,71,55,30.48,30.42,30.30,10,10,10,6,2,,0.00,2,,344
2014-1-3,33,11,-11,34,8,-18,100,84,65,30.29,29.73,29.36,10,7,1,14,6,22,0.00,6,,168
2014-1-4,35,15,-5,36,5,-11,100,79,62,30.27,29.92,29.38,10,10,5,24,14,34,0.00,3,,309
2014-1-5,-5,-12,-20,-11,-19,-29,84,69,58,30.37,30.33,30.26,10,10,4,21,8,28,0.00,1,,298
2014-1-6,-11,-16,-22,-17,-25,-29,84,68,63,30.31,30.24,30.12,10,10,5,17,12,25,0.00,1,,288
2014-1-7,3,-5,-13,-4,-11,-18,84,72,60,30.24,30.13,30.07,10,10,10,9,5,,0.00,1,,275
2014-1-8,0,-6,-11,-6,-12,-17,92,77,66,30.43,30.37,30.24,10,10,10,8,4,,0.00,0,,299
2014-1-9,19,8,-2,18,8,-6,100,84,72,30.34,30.06,29.83,10,9,5,14,7,22,0.00,4,,157
2014-1-10,30,24,17,30,27,18,100,100,100,29.80,29.61,29.48,4,2,0,10,6,,0.00,8,Fog,162
2014-1-11,30,24,19,28,24,19,100,98,86,29.66,29.58,29.47,10,8,0,15,7,23,0.00,4,Fog,288
2014-1-12,42,32,21,34,30,21,100,83,70,29.56,29.42,29.30,10,10,10,10,5,17,0.00,1,,232
2014-1-13,35,30,24,30,24,18,100,84,74,29.68,29.60,29.48,10,10,5,20,10,26,0.00,3,Snow,290
2014-1-14,28,17,6,28,15,1,100,87,73,30.15,29.87,29.47,10,6,1,21,11,30,0.00,6,Snow,324
2014-1-15,35,19,3,28,10,1,100,84,73,30.15,29.84,29.38,10,9,0,14,6,23,0.00,5,Snow,225
2014-1-16,37,20,3,34,11,-2,93,80,67,29.93,29.64,29.36,10,6,1,29,18,41,0.00,8,Rain-Snow,309
2014-1-17,12,4,-4,9,-1,-9,92,79,67,30.06,29.95,29.68,10,10,2,20,11,25,0.00,3,Snow,299
2014-1-18,19,16,12,18,13,10,100,87,73,29.96,29.73,29.46,10,8,1,18,11,22,0.00,4,Snow,357
2014-1-19,37,28,19,30,27,19,100,84,70,29.72,29.57,29.44,10,10,10,21,8,25,0.00,2,,273
2014-1-20,28,10,-9,27,6,-17,93,75,50,30.46,30.07,29.72,10,9,1,21,11,25,0.00,5,Snow,342
2014-1-21,8,-5,-18,5,-13,-26,92,75,60,30.47,30.23,29.95,10,8,2,12,5,16,0.00,4,Snow,204
2014-1-22,8,-2,-13,7,-7,-18,92,75,65,30.52,30.17,29.95,10,7,1,26,14,38,0.00,4,Snow,315
2014-1-23,8,-5,-16,-2,-15,-24,92,76,61,30.71,30.54,30.09,10,10,10,14,8,23,0.00,0,,283
2014-1-24,35,22,8,34,20,-2,100,78,54,30.06,29.67,29.49,10,9,2,22,11,32,0.00,7,Rain-Snow,268
2014-1-25,21,11,1,10,-4,-11,92,62,44,29.95,29.78,29.45,10,9,1,22,15,31,0.00,2,Snow,307
2014-1-26,17,4,-9,12,1,-18,100,80,65,30.13,29.61,29.37,10,6,0,31,13,47,0.00,7,Snow,312
2014-1-27,-7,-12,-16,-17,-21,-26,84,66,58,30.39,30.33,30.13,10,10,7,22,14,30,0.00,1,,294
2014-1-28,0,-7,-14,-9,-14,-18,84,71,60,30.34,30.23,30.06,10,10,10,13,6,20,0.00,0,,264
2014-1-29,30,12,-7,19,4,-11,86,69,49,30.05,29.76,29.53,10,10,10,8,4,,0.00,0,,216
2014-1-30,21,7,-7,18,5,-11,100,80,66,30.04,29.72,29.45,10,7,1,22,10,30,0.01,4,Snow,335
2014-1-31,10,0,-11,1,-7,-17,92,78,66,30.11,30.03,29.94,10,10,10,7,3,,0.00,0,,229